| time (UTC) | temp F | wind direction | speed knots | gust knots | rain 1hr in | rain 24hr in | rain mn in | humidity % | barometer mb |
| 20260905164601 | 86 | 353 | 3.5 | 7.8 | 0.00 | 0.00 | 0.00 | 51 | 1018.3 |
| 20260905163558 | 87 | 337 | 4.3 | 7.0 | 0.00 | 0.00 | 0.00 | 50 | 1018.3 |
| 20260905162555 | 87 | 335 | 5.2 | 9.6 | 0.00 | 0.00 | 0.00 | 50 | 1018.3 |
| 20260905161553 | 87 | 21 | 4.3 | 9.6 | 0.00 | 0.00 | 0.00 | 48 | 1018.4 |
| 20260905160550 | 88 | 5 | 5.2 | 9.6 | 0.00 | 0.00 | 0.00 | 45 | 1018.4 |
| 20260905155548 | 88 | 16 | 4.3 | 9.6 | 0.00 | 0.00 | 0.00 | 43 | 1018.5 |
| 20260905154545 | 89 | 71 | 5.2 | 13.0 | 0.00 | 0.00 | 0.00 | 42 | 1018.5 |
| 20260905153543 | 89 | 38 | 5.2 | 12.2 | 0.00 | 0.00 | 0.00 | 42 | 1018.3 |
| 20260905152540 | 89 | 52 | 4.3 | 9.6 | 0.00 | 0.00 | 0.00 | 41 | 1018.4 |
| 20260905151537 | 89 | 23 | 5.2 | 11.3 | 0.00 | 0.00 | 0.00 | 42 | 1018.5 |
| 20260905150535 | 89 | 319 | 5.2 | 11.3 | 0.00 | 0.00 | 0.00 | 42 | 1018.6 |
| 20260905145532 | 90 | 52 | 5.2 | 9.6 | 0.00 | 0.00 | 0.00 | 40 | 1018.5 |
| 20260905144559 | 92 | 86 | 3.5 | 9.6 | 0.00 | 0.00 | 0.00 | 38 | 1018.7 |
| 20260905143557 | 92 | 72 | 4.3 | 13.0 | 0.00 | 0.00 | 0.00 | 38 | 1018.7 |
| 20260905142554 | 92 | 22 | 3.5 | 9.6 | 0.00 | 0.00 | 0.00 | 37 | 1018.8 |
| 20260905141552 | 91 | 54 | 5.2 | 12.2 | 0.00 | 0.00 | 0.00 | 37 | 1018.8 |
| 20260905140549 | 92 | 28 | 4.3 | 9.6 | 0.00 | 0.00 | 0.00 | 37 | 1018.8 |
| 20260905135547 | 92 | 3 | 4.3 | 9.6 | 0.00 | 0.00 | 0.00 | 37 | 1018.9 |
| 20260905134544 | 92 | 33 | 4.3 | 12.2 | 0.00 | 0.00 | 0.00 | 36 | 1019.0 |
| 20260905133541 | 92 | 66 | 5.2 | 13.9 | 0.00 | 0.00 | 0.00 | 36 | 1018.8 |
| 20260905132539 | 93 | 133 | 3.5 | 12.2 | 0.00 | 0.00 | 0.00 | 35 | 1019.0 |
| 20260905131536 | 94 | 127 | 2.6 | 6.1 | 0.00 | 0.00 | 0.00 | 34 | 1019.0 |
| 20260905130534 | 92 | 15 | 5.2 | 13.0 | 0.00 | 0.00 | 0.00 | 35 | 1019.1 |
| 20260905125531 | 92 | 103 | 5.2 | 9.6 | 0.00 | 0.00 | 0.00 | 35 | 1019.1 |
| 20260905124528 | 92 | 34 | 6.1 | 9.6 | 0.00 | 0.00 | 0.00 | 36 | 1019.1 |
| 20260905123526 | 94 | 93 | 1.7 | 5.2 | 0.00 | 0.00 | 0.00 | 34 | 1019.1 |
| 20260905122523 | 94 | 26 | 2.6 | 6.1 | 0.00 | 0.00 | 0.00 | 34 | 1019.3 |
| 20260905121521 | 93 | 57 | 3.5 | 9.6 | 0.00 | 0.00 | 0.00 | 35 | 1019.4 |
| 20260905120518 | 92 | 28 | 5.2 | 9.6 | 0.00 | 0.00 | 0.00 | 35 | 1019.3 |
| 20260905115515 | 92 | 40 | 5.2 | 9.6 | 0.00 | 0.00 | 0.00 | 34 | 1019.4 |
| 20260905114613 | 93 | 64 | 3.5 | 12.2 | 0.00 | 0.00 | 0.00 | 33 | 1019.5 |
| 20260905113610 | 94 | 151 | 1.7 | 7.8 | 0.00 | 0.00 | 0.00 | 34 | 1019.5 |
| 20260905112608 | 92 | 114 | 3.5 | 9.6 | 0.00 | 0.00 | 0.00 | 35 | 1019.5 |
| 20260905111605 | 93 | 33 | 3.5 | 7.8 | 0.00 | 0.00 | 0.00 | 36 | 1019.5 |
| 20260905110603 | 93 | 93 | 2.6 | 7.8 | 0.00 | 0.00 | 0.00 | 36 | 1019.4 |
| 20260905105600 | 93 | 131 | 2.6 | 11.3 | 0.00 | 0.00 | 0.00 | 35 | 1019.4 |
| 20260905104557 | 92 | 336 | 3.5 | 7.8 | 0.00 | 0.00 | 0.00 | 38 | 1019.3 |
| 20260905103555 | 92 | 163 | 3.5 | 9.6 | 0.00 | 0.00 | 0.00 | 39 | 1019.4 |
| 20260905102552 | 90 | 15 | 4.3 | 9.6 | 0.00 | 0.00 | 0.00 | 39 | 1019.5 |
| 20260905101550 | 92 | 1 | 3.5 | 7.8 | 0.00 | 0.00 | 0.00 | 38 | 1019.5 |
| 20260905100548 | 90 | 28 | 5.2 | 9.6 | 0.00 | 0.00 | 0.00 | 39 | 1019.4 |
| 20260905095544 | 91 | 56 | 3.5 | 7.0 | 0.00 | 0.00 | 0.00 | 38 | 1019.5 |
| 20260905094542 | 91 | 43 | 3.5 | 7.8 | 0.00 | 0.00 | 0.00 | 38 | 1019.4 |
| 20260905093539 | 90 | 346 | 3.5 | 6.1 | 0.00 | 0.00 | 0.00 | 39 | 1019.3 |
| 20260905092537 | 90 | 14 | 4.3 | 9.6 | 0.00 | 0.00 | 0.00 | 38 | 1019.4 |
| 20260905091534 | 90 | 41 | 3.5 | 7.8 | 0.00 | 0.00 | 0.00 | 38 | 1019.2 |
| 20260905090531 | 89 | 54 | 5.2 | 9.6 | 0.00 | 0.00 | 0.00 | 39 | 1019.1 |
| 20260905085529 | 90 | 57 | 4.3 | 7.8 | 0.00 | 0.00 | 0.00 | 38 | 1019.0 |
| 20260905084526 | 89 | 21 | 6.1 | 9.6 | 0.00 | 0.00 | 0.00 | 38 | 1018.9 |
| 20260905083524 | 89 | 13 | 5.2 | 9.6 | 0.00 | 0.00 | 0.00 | 38 | 1019.0 |
| 20260905082521 | 89 | 357 | 5.2 | 9.6 | 0.00 | 0.00 | 0.00 | 37 | 1018.7 |
| 20260905081518 | 89 | 350 | 6.1 | 9.6 | 0.00 | 0.00 | 0.00 | 37 | 1018.5 |
| 20260905080516 | 89 | 325 | 4.3 | 7.8 | 0.00 | 0.00 | 0.00 | 37 | 1018.4 |
| 20260905075613 | 90 | 335 | 0.9 | 3.5 | 0.00 | 0.00 | 0.00 | 42 | 1018.4 |
| 20260905074611 | 89 | 0.0 | 1.7 | 0.00 | 0.00 | 0.00 | 45 | 1018.3 | |
| 20260905073608 | 87 | 0.0 | 1.7 | 0.00 | 0.00 | 0.00 | 46 | 1018.2 | |
| 20260905072606 | 86 | 90 | 0.0 | 1.7 | 0.00 | 0.00 | 0.00 | 47 | 1018.2 |
| 20260905071603 | 88 | 0.0 | 1.7 | 0.00 | 0.00 | 0.00 | 43 | 1018.1 | |
| 20260905070601 | 86 | 293 | 0.0 | 1.7 | 0.00 | 0.00 | 0.00 | 46 | 1018.0 |
| 20260905065558 | 84 | 296 | 2.6 | 3.5 | 0.00 | 0.00 | 0.00 | 47 | 1017.9 |
| 20260905064555 | 84 | 301 | 1.7 | 3.5 | 0.00 | 0.00 | 0.00 | 47 | 1017.8 |
| 20260905063553 | 83 | 277 | 0.0 | 1.7 | 0.00 | 0.00 | 0.00 | 48 | 1017.9 |
| 20260905062550 | 82 | 284 | 1.7 | 3.5 | 0.00 | 0.00 | 0.00 | 50 | 1017.6 |
| 20260905061547 | 80 | 0.0 | 1.7 | 0.00 | 0.00 | 0.00 | 52 | 1017.7 | |
| 20260905060545 | 80 | 270 | 0.0 | 1.7 | 0.00 | 0.00 | 0.00 | 51 | 1017.5 |
| 20260905055542 | 78 | 0.0 | 0.0 | 0.00 | 0.00 | 0.00 | 54 | 1017.5 | |
| 20260905054540 | 80 | 270 | 0.0 | 1.7 | 0.00 | 0.00 | 0.00 | 51 | 1017.2 |
| 20260905053537 | 80 | 263 | 1.7 | 1.7 | 0.00 | 0.00 | 0.00 | 50 | 1017.3 |
| 20260905052534 | 80 | 240 | 1.7 | 1.7 | 0.00 | 0.00 | 0.00 | 50 | 1017.2 |
| 20260905051532 | 79 | 259 | 1.7 | 1.7 | 0.00 | 0.00 | 0.00 | 52 | 1017.0 |
| 20260905050529 | 78 | 279 | 1.7 | 1.7 | 0.00 | 0.00 | 0.00 | 54 | 1017.1 |
| 20260905045527 | 77 | 225 | 0.0 | 1.7 | 0.00 | 0.00 | 0.00 | 56 | 1017.1 |
| 20260905044524 | 77 | 267 | 0.9 | 1.7 | 0.00 | 0.00 | 0.00 | 55 | 1017.0 |
| 20260905043521 | 77 | 251 | 2.6 | 3.5 | 0.00 | 0.00 | 0.00 | 56 | 1017.0 |
| 20260905042519 | 77 | 248 | 1.7 | 1.7 | 0.00 | 0.00 | 0.00 | 56 | 1016.9 |
| 20260905041516 | 78 | 264 | 0.9 | 1.7 | 0.00 | 0.00 | 0.00 | 55 | 1016.9 |
| 20260905040614 | 77 | 266 | 0.9 | 1.7 | 0.00 | 0.00 | 0.00 | 55 | 1016.8 |
| 20260905035611 | 78 | 0.0 | 0.0 | 0.00 | 0.00 | 0.00 | 55 | 1016.9 | |
| 20260905034609 | 77 | 248 | 1.7 | 1.7 | 0.00 | 0.00 | 0.00 | 55 | 1017.0 |
| 20260905033606 | 78 | 248 | 0.0 | 1.7 | 0.00 | 0.00 | 0.00 | 55 | 1016.9 |
| 20260905032604 | 78 | 229 | 1.7 | 3.5 | 0.00 | 0.00 | 0.00 | 55 | 1016.8 |
| 20260905031601 | 77 | 243 | 0.9 | 1.7 | 0.00 | 0.00 | 0.00 | 56 | 1016.8 |
| 20260905030558 | 77 | 0.0 | 0.0 | 0.00 | 0.00 | 0.00 | 57 | 1016.6 | |
| 20260905025556 | 77 | 293 | 0.0 | 1.7 | 0.00 | 0.00 | 0.00 | 57 | 1016.7 |
| 20260905024553 | 78 | 23 | 0.0 | 1.7 | 0.00 | 0.00 | 0.00 | 55 | 1016.8 |
| 20260905023551 | 79 | 0.0 | 1.7 | 0.00 | 0.00 | 0.00 | 54 | 1016.7 | |
| 20260905022548 | 78 | 293 | 0.9 | 1.7 | 0.00 | 0.00 | 0.00 | 56 | 1016.8 |
| 20260905021545 | 77 | 0.0 | 0.0 | 0.00 | 0.00 | 0.00 | 57 | 1016.8 | |
| 20260905020543 | 78 | 0.0 | 0.0 | 0.00 | 0.00 | 0.00 | 56 | 1016.8 | |
| 20260905015540 | 78 | 0.0 | 0.0 | 0.00 | 0.00 | 0.00 | 55 | 1016.6 | |
| 20260905014538 | 78 | 0.0 | 0.0 | 0.00 | 0.00 | 0.00 | 54 | 1016.7 | |
| 20260905013535 | 77 | 0.0 | 0.0 | 0.00 | 0.00 | 0.00 | 57 | 1016.8 | |
| 20260905012533 | 77 | 0.0 | 0.0 | 0.00 | 0.00 | 0.00 | 56 | 1016.9 | |
| 20260905011530 | 78 | 244 | 1.7 | 1.7 | 0.00 | 0.00 | 0.00 | 55 | 1016.8 |
| 20260905010527 | 78 | 242 | 0.9 | 3.5 | 0.00 | 0.00 | 0.00 | 55 | 1016.9 |
| 20260905005525 | 79 | 221 | 0.0 | 3.5 | 0.00 | 0.00 | 0.00 | 54 | 1016.9 |
| 20260905004522 | 79 | 224 | 1.7 | 3.5 | 0.00 | 0.00 | 0.00 | 53 | 1016.9 |
| 20260905003519 | 79 | 215 | 3.5 | 6.1 | 0.00 | 0.00 | 0.00 | 54 | 1017.0 |
| 20260905002517 | 78 | 230 | 3.5 | 7.0 | 0.00 | 0.00 | 0.00 | 56 | 1017.1 |
| 20260905001614 | 79 | 222 | 2.6 | 5.2 | 0.00 | 0.00 | 0.00 | 56 | 1017.1 |
| 20260905000612 | 78 | 180 | 1.7 | 1.7 | 0.00 | 0.00 | 0.00 | 57 | 1017.2 |
| 20260904235609 | 78 | 230 | 4.3 | 7.0 | 0.00 | 0.00 | 0.00 | 58 | 1017.2 |
| 20260904234607 | 77 | 218 | 0.9 | 3.5 | 0.00 | 0.00 | 0.00 | 62 | 1017.3 |
| 20260904233604 | 78 | 235 | 1.7 | 3.5 | 0.00 | 0.00 | 0.00 | 61 | 1017.4 |
| 20260904232601 | 78 | 180 | 1.7 | 3.5 | 0.00 | 0.00 | 0.00 | 61 | 1017.4 |
| 20260904231559 | 78 | 176 | 1.7 | 3.5 | 0.00 | 0.00 | 0.00 | 61 | 1017.4 |
| 20260904230556 | 78 | 230 | 2.6 | 5.2 | 0.00 | 0.00 | 0.00 | 63 | 1017.5 |
| 20260904225554 | 78 | 221 | 1.7 | 3.5 | 0.00 | 0.00 | 0.00 | 64 | 1017.5 |
| 20260904224551 | 78 | 223 | 1.7 | 5.2 | 0.00 | 0.00 | 0.00 | 62 | 1017.5 |
| 20260904223548 | 78 | 210 | 2.6 | 5.2 | 0.00 | 0.00 | 0.00 | 64 | 1017.7 |
| 20260904222546 | 77 | 218 | 4.3 | 6.1 | 0.00 | 0.00 | 0.00 | 67 | 1017.4 |
| 20260904221543 | 77 | 225 | 4.3 | 7.0 | 0.00 | 0.00 | 0.00 | 68 | 1017.5 |
| 20260904220541 | 78 | 194 | 3.5 | 6.1 | 0.00 | 0.00 | 0.00 | 69 | 1017.6 |
| 20260904215538 | 78 | 178 | 1.7 | 3.5 | 0.00 | 0.00 | 0.00 | 70 | 1017.6 |
| 20260904214535 | 78 | 214 | 2.6 | 6.1 | 0.00 | 0.00 | 0.00 | 72 | 1017.5 |
| 20260904213533 | 78 | 183 | 1.7 | 3.5 | 0.00 | 0.00 | 0.00 | 74 | 1017.5 |
| 20260904212530 | 79 | 175 | 1.7 | 3.5 | 0.00 | 0.00 | 0.00 | 73 | 1017.6 |
| 20260904211528 | 80 | 234 | 2.6 | 3.5 | 0.00 | 0.00 | 0.00 | 71 | 1017.7 |
| 20260904210525 | 80 | 244 | 2.6 | 3.5 | 0.00 | 0.00 | 0.00 | 72 | 1017.7 |
| 20260904205522 | 80 | 228 | 2.6 | 3.5 | 0.00 | 0.00 | 0.00 | 73 | 1017.8 |
| 20260904204520 | 80 | 233 | 3.5 | 3.5 | 0.00 | 0.00 | 0.00 | 74 | 1017.8 |
| 20260904203517 | 80 | 221 | 2.6 | 3.5 | 0.00 | 0.00 | 0.00 | 75 | 1017.7 |
| 20260904202515 | 80 | 237 | 2.6 | 3.5 | 0.00 | 0.00 | 0.00 | 75 | 1017.8 |
| 20260904201612 | 80 | 253 | 0.9 | 1.7 | 0.00 | 0.00 | 0.00 | 74 | 1017.8 |
| 20260904200610 | 80 | 248 | 1.7 | 1.7 | 0.00 | 0.00 | 0.00 | 74 | 1017.7 |
| 20260904195607 | 81 | 239 | 0.9 | 3.5 | 0.00 | 0.00 | 0.00 | 74 | 1017.8 |
| 20260904194605 | 81 | 0.0 | 1.7 | 0.00 | 0.00 | 0.00 | 75 | 1017.6 | |
| 20260904193602 | 81 | 315 | 0.0 | 1.7 | 0.00 | 0.00 | 0.00 | 75 | 1017.6 |
| 20260904192559 | 81 | 322 | 0.9 | 1.7 | 0.00 | 0.00 | 0.00 | 76 | 1017.6 |
| 20260904191556 | 80 | 338 | 0.0 | 1.7 | 0.00 | 0.00 | 0.00 | 78 | 1017.5 |
| 20260904190554 | 80 | 310 | 0.9 | 1.7 | 0.00 | 0.00 | 0.00 | 79 | 1017.5 |
| 20260904185551 | 81 | 306 | 0.9 | 1.7 | 0.00 | 0.00 | 0.00 | 79 | 1017.3 |
| 20260904184549 | 81 | 313 | 2.6 | 3.5 | 0.00 | 0.00 | 0.00 | 78 | 1017.0 |
| 20260904183546 | 81 | 300 | 0.9 | 1.7 | 0.00 | 0.00 | 0.00 | 78 | 1017.0 |
| 20260904182544 | 81 | 62 | 0.9 | 1.7 | 0.00 | 0.00 | 0.00 | 77 | 1016.9 |
| 20260904181542 | 82 | 20 | 1.7 | 3.5 | 0.00 | 0.00 | 0.00 | 76 | 1016.8 |
| 20260904180538 | 82 | 348 | 1.7 | 5.2 | 0.00 | 0.00 | 0.00 | 74 | 1016.7 |
| 20260904175536 | 83 | 10 | 2.6 | 5.2 | 0.00 | 0.00 | 0.00 | 73 | 1016.7 |
| 20260904174533 | 84 | 118 | 1.7 | 3.5 | 0.00 | 0.00 | 0.00 | 70 | 1016.4 |
| 20260904173531 | 84 | 29 | 1.7 | 5.2 | 0.00 | 0.00 | 0.00 | 68 | 1016.3 |
| 20260904172528 | 84 | 43 | 2.6 | 6.1 | 0.00 | 0.00 | 0.00 | 68 | 1016.3 |
| 20260904171525 | 84 | 30 | 4.3 | 9.6 | 0.00 | 0.00 | 0.00 | 69 | 1016.3 |
| 20260904170523 | 85 | 17 | 5.2 | 9.6 | 0.00 | 0.00 | 0.00 | 68 | 1016.1 |
| 20260904165520 | 85 | 13 | 4.3 | 9.6 | 0.00 | 0.00 | 0.00 | 68 | 1016.0 |